Greenville, ME

6:40 AM EST on November 20, 2019 (GMT -0500)
Greenville

Weather History for KGNR - September, 2019

Change the Weather History Date:

Wednesday, September 11, 2019

  Actual Average (WUND) Record (WUND)
Temperature  
Mean Temperature 62 °F -  
Max Temperature 73 °F - - (-1)
Min Temperature 50 °F - - (-1)
Degree Days  
Heating Degree Days 4    
Growing Degree Days 12 (Base 50)    
Moisture  
Dew Point 58 °F    
Average Humidity 89    
Maximum Humidity 100    
Minimum Humidity 70    
Precipitation  
Precipitation 0.17 in - - ()
Sea Level Pressure  
Sea Level Pressure 30.00 in    
Wind  
Wind Speed 6 mph ()    
Max Wind Speed 15 mph    
Max Gust Speed 22 mph    
Averages and records for this station are not official NWS values.
T = Trace of Precipitation, MM = Missing Value Source: Averaged Metar Reports

Daily Weather History Graph

Daily Weather History Graph

Search for Another Location

Airport or City:

Astronomy

Sep. 11, 2019 Rise Set
Actual Time 6:11 AM EDT 6:57 PM EDT
Civil Twilight 5:41 AM EDT 7:27 PM EDT
Nautical Twilight 5:05 AM EDT 8:02 PM EDT
Astronomical Twilight 4:28 AM EDT 8:40 PM EDT
Moon 6:17 PM EDT (9/11) 3:19 AM EDT (9/11)
Length of Visible Light 13h 45m
Length of Day
12h 45m
Waxing Gibbous, 94% of the Moon is Illuminated
Sep 11
Waxing Gibbous
Sep 14
Full
Sep 21
Last Quarter
Sep 28
New
Oct 5
First Quarter

Hourly Weather History & Observations

Time (EDT) Temp. Dew Point Humidity Pressure Visibility Wind Dir Wind Speed Gust Speed Precip Events Conditions
1:56 AM 55.0 °F 54.0 °F 96% 30.09 in - SSE 6.9 mph - N/A   Unknown
2:56 AM 55.0 °F 55.0 °F 100% 30.07 in - Variable 4.6 mph - N/A   Unknown
3:56 AM 55.9 °F 55.0 °F 97% 30.04 in - SSE 6.9 mph - N/A   Unknown
4:56 AM 55.9 °F 55.9 °F 100% 30.03 in - SSE 5.8 mph - 0.01 in   Unknown
5:56 AM 57.0 °F 55.9 °F 96% 30.03 in - SSE 3.5 mph - 0.01 in   Unknown
6:56 AM 57.9 °F 57.0 °F 97% 30.03 in - Calm Calm - N/A   Unknown
7:56 AM 59.0 °F 57.9 °F 96% 30.01 in - Variable 3.5 mph - 0.03 in   Unknown
8:56 AM 60.1 °F 60.1 °F 100% 30.00 in - SE 3.5 mph - N/A   Unknown
9:56 AM 61.0 °F 60.1 °F 97% 30.00 in - Calm Calm - 0.07 in   Unknown
11:56 AM 71.1 °F 66.0 °F 84% 29.93 in - SW 4.6 mph - N/A   Unknown
12:56 PM 72.0 °F 64.9 °F 78% 29.92 in - North - - N/A   Unknown
1:56 PM 71.1 °F 64.9 °F 81% 29.93 in - Variable 5.8 mph - N/A   Unknown
2:56 PM 71.1 °F 61.0 °F 70% 29.93 in - WNW 8.1 mph - N/A   Unknown
3:56 PM 71.1 °F 62.1 °F 73% 29.92 in - NW 8.1 mph 18.4 mph N/A   Unknown
4:56 PM 69.1 °F 61.0 °F 75% 29.93 in - NW 10.4 mph - N/A   Unknown
5:56 PM 68.0 °F 61.0 °F 78% 29.93 in - NW 5.8 mph - N/A   Unknown
6:56 PM 62.1 °F 59.0 °F 90% 29.96 in - NNW 12.7 mph - 0.05 in   Unknown
7:56 PM 59.0 °F 57.0 °F 93% 29.99 in - NNW 15.0 mph 21.9 mph N/A   Unknown
8:56 PM 55.0 °F 52.0 °F 89% 30.02 in - NW 9.2 mph - N/A   Unknown
9:56 PM 53.1 °F 50.0 °F 89% 30.04 in - NW 11.5 mph 21.9 mph N/A   Unknown
10:56 PM 51.1 °F 48.9 °F 92% 30.05 in - NW 11.5 mph - N/A   Unknown
11:56 PM 50.0 °F 46.9 °F 89% 30.05 in - North 9.2 mph - N/A   Unknown